This is the latest recevied weather packets stored in our database for station/object SP1BMW-13. If no packets are shown the sender has not sent any weather packets the latest 10 day(s).
| Time | Temp. | Humidity | Pressure | Rain* | Wind** | Luminosity | Snow |
|---|---|---|---|---|---|---|---|
| 1777397218 | 11.67° C | 33% | 1024.9 hPa | 0 mm | 1.34 m/s, 318° | 44 W/m² | - |
| 1777397158 | 12.22° C | 32% | 1024.9 hPa | 0 mm | 1.34 m/s, 357° | 45 W/m² | - |
| 1777397098 | 12.22° C | 32% | 1024.9 hPa | 0 mm | 1.34 m/s, 332° | 46 W/m² | - |
| 1777397038 | 12.22° C | 32% | 1024.9 hPa | 0 mm | 2.68 m/s, 283° | 48 W/m² | - |
| 1777396978 | 12.22° C | 33% | 1024.8 hPa | 0 mm | 0.89 m/s, 315° | 50 W/m² | - |
| 1777396918 | 12.22° C | 33% | 1025 hPa | 0 mm | 0.45 m/s, 23° | 52 W/m² | - |
| 1777396858 | 12.22° C | 33% | 1025.1 hPa | 0 mm | 0.89 m/s, 349° | 54 W/m² | - |
| 1777396798 | 12.22° C | 33% | 1024.8 hPa | 0 mm | 0 m/s | 56 W/m² | - |
| 1777396738 | 12.22° C | 33% | 1025.2 hPa | 0 mm | 0.45 m/s, 16° | 58 W/m² | - |
| 1777396678 | 12.22° C | 33% | 1025 hPa | 0 mm | 1.34 m/s, 20° | 59 W/m² | - |
| 1777396618 | 12.22° C | 34% | 1025 hPa | 0 mm | 2.24 m/s, 322° | 61 W/m² | - |
| 1777396558 | 12.22° C | 34% | 1025 hPa | 0 mm | 1.79 m/s, 325° | 63 W/m² | - |
| 1777396498 | 12.22° C | 34% | 1024.9 hPa | 0 mm | 1.79 m/s, 358° | 65 W/m² | - |
| 1777396438 | 12.22° C | 34% | 1024.9 hPa | 0 mm | 0.45 m/s, 334° | 66 W/m² | - |
| 1777396378 | 12.22° C | 34% | 1024.8 hPa | 0 mm | 0.89 m/s, 325° | 68 W/m² | - |
| 1777396317 | 12.22° C | 34% | 1024.8 hPa | 0 mm | 0.89 m/s, 6° | 70 W/m² | - |
| 1777396258 | 12.22° C | 34% | 1024.8 hPa | 0 mm | 0.89 m/s, 340° | 72 W/m² | - |
| 1777396198 | 12.22° C | 33% | 1024.7 hPa | 0 mm | 0.89 m/s, 89° | 73 W/m² | - |
| 1777396138 | 12.22° C | 34% | 1024.8 hPa | 0 mm | 0.89 m/s, 308° | 75 W/m² | - |
| 1777396078 | 12.22° C | 34% | 1025 hPa | 0 mm | 1.79 m/s, 307° | 77 W/m² | - |
| 1777396018 | 12.22° C | 34% | 1024.9 hPa | 0 mm | 0.45 m/s, 308° | 78 W/m² | - |
| 1777395958 | 12.22° C | 34% | 1024.9 hPa | 0 mm | 0.89 m/s, 323° | 80 W/m² | - |
| 1777395898 | 12.22° C | 34% | 1024.8 hPa | 0 mm | 1.79 m/s, 322° | 81 W/m² | - |
| 1777395838 | 12.22° C | 34% | 1024.9 hPa | 0 mm | 0.89 m/s, 320° | 83 W/m² | - |
| 1777395778 | 12.22° C | 34% | 1024.8 hPa | 0 mm | 0.89 m/s, 298° | 85 W/m² | - |
* Rain latest hour (hover to see other rain measurements)
** Current wind speed in m/s (hover to see current wind gust speed)